Theta_e
355 356 358 359 359 361 360 359 360 360 361 362 364 365 365 367 367 365 364 363 362 362 362 361 362 361 362 362 362 361 361 361 363 359 359 355 355 359 355 353 353 352 352
356 357 358 359 360 361 362 361 361 362 364 365 364 362 360 359 358 356 354 351 349 347 346 346 348 347 349 349 350 350 353 355 357 361 359 357 357 357 355 355 357 355 355
357 358 359 362 362 364 365 364 361 360 359 356 352 352 350 348 344 343 343 343 343 343 343 344 345 346 348 347 349 348 348 348 350 355 357 356 357 357 355 355 356 356 355
358 360 364 359 357 353 352 351 349 347 348 346 343 342 342 341 340 341 340 337 337 336 337 338 339 341 342 343 344 345 347 350 354 352 352 354 353 354 354 353 354 354 352
361 359 353 351 348 347 345 340 339 339 338 337 338 337 337 336 333 331 333 333 334 335 335 336 337 338 337 337 337 338 340 340 342 344 351 351 352 352 355 353 352 353 347
352 349 346 342 337 336 336 336 335 335 334 336 335 335 335 334 332 331 328 328 331 333 334 335 335 335 338 339 339 339 340 340 342 343 342 346 350 350 349 352 351 345 343
340 337 335 334 332 330 330 330 332 332 332 333 333 333 333 329 327 325 324 326 330 333 333 335 337 337 340 338 338 338 339 341 342 341 343 344 346 347 347 349 350 346 345
333 333 332 323 325 325 326 330 331 332 331 331 330 330 329 327 321 319 320 328 331 331 330 331 332 335 334 330 327 328 330 335 341 342 342 343 344 344 345 347 348 346 344
331 330 327 330 328 329 328 330 331 332 330 329 328 328 327 327 322 319 319 325 327 327 327 329 330 330 327 325 323 325 328 332 338 342 343 343 343 345 348 346 345 343 340
329 329 328 329 330 330 330 330 331 330 329 328 328 327 326 326 325 320 320 324 325 325 327 328 327 326 323 323 324 323 325 330 339 342 343 342 342 345 346 346 343 340 338
329 330 329 330 330 329 330 330 330 329 329 329 329 329 327 326 325 321 321 322 322 325 326 325 324 323 322 323 324 326 328 330 333 340 341 341 341 343 343 342 341 340 336
331 331 330 329 326 328 329 328 330 330 329 328 327 326 326 325 322 321 321 322 322 324 324 323 323 322 322 323 323 324 329 333 335 340 340 340 341 339 338 339 340 339 337
330 329 328 327 328 329 329 328 329 327 326 325 324 324 324 323 321 320 321 321 321 322 322 321 320 322 321 321 322 321 322 324 325 325 327 331 335 334 333 333 333 334 333
330 328 327 327 327 327 325 324 324 324 324 323 323 323 323 321 319 319 320 321 321 322 322 320 321 322 321 321 320 320 320 320 320 321 322 323 325 327 327 329 330 328 329
329 328 327 325 326 326 325 323 322 321 321 321 321 321 321 320 318 316 318 319 319 321 321 320 318 319 321 322 322 319 319 319 318 318 319 320 320 320 321 324 325 327 331
328 326 325 325 325 323 320 321 318 315 314 314 315 317 319 318 317 317 318 319 320 321 322 321 319 317 318 319 319 320 319 318 319 319 319 318 319 319 320 320 319 320 321
326 325 323 323 323 324 323 323 322 317 318 317 316 316 317 318 319 319 320 321 321 322 323 323 323 322 319 320 319 318 318 318 319 318 317 317 317 317 318 318 318 318 319
326 323 323 324 324 323 324 324 323 323 323 323 321 321 321 320 320 321 322 323 323 322 322 322 323 324 324 322 320 319 318 317 317 318 318 316 316 315 316 316 315 314 315
325 322 324 324 324 324 323 323 322 323 323 323 322 322 322 322 322 322 322 322 324 323 322 323 322 323 323 322 323 322 319 317 317 316 316 314 314 316 316 314 313 313 312
325 323 324 324 324 323 324 324 323 322 322 322 322 322 323 322 323 323 322 321 322 323 323 322 322 323 323 322 322 321 320 320 319 318 318 319 318 318 315 314 315 315 314
326 324 322 324 325 324 324 324 323 322 322 322 322 322 319 319 322 323 323 322 323 322 323 322 322 322 322 322 322 321 320 321 320 321 321 320 319 319 319 318 316 316 316
327 326 324 323 325 325 325 325 324 323 322 322 321 322 320 320 321 322 322 323 322 322 323 322 323 321 322 323 323 321 321 320 320 320 320 320 320 319 319 318 318 319 319
329 328 327 325 325 325 325 325 325 324 323 322 321 322 321 323 323 322 322 322 323 323 323 322 322 322 322 322 324 322 322 322 322 319 320 319 319 319 319 319 318 317 318
331 330 328 327 326 326 326 326 327 324 323 323 322 321 321 323 323 323 323 323 322 323 323 322 322 321 322 322 321 321 322 320 323 320 321 321 319 320 318 318 318 319 318
330 331 330 328 327 327 327 327 326 321 324 323 320 321 322 321 322 322 322 322 322 322 322 322 322 322 323 322 322 322 322 319 318 320 320 321 320 320 320 319 318 317 316
330 329 327 326 329 329 329 328 326 325 325 325 322 321 322 322 322 322 322 323 323 322 323 322 323 323 323 323 324 321 319 318 318 318 318 320 321 320 319 317 316 315 314
Wind_Speed
29 27 24 22 20 18 17 15 14 11 10 11 10 10 11 10 11 13 13 16 18 19 20 21 24 22 24 24 25 28 29 23 13 26 28 25 25 20 19 19 18 20 22
19 16 18 15 16 14 11 11 9 9 7 5 6 7 8 8 11 13 15 15 17 19 20 21 24 24 25 26 27 28 28 30 21 18 26 28 25 23 20 22 22 22 23
15 8 7 8 6 7 8 6 6 4 2 2 2 5 6 8 10 13 14 15 17 19 20 21 23 23 24 25 25 28 29 29 27 24 25 28 29 28 21 24 23 23 21
27 18 22 18 13 9 8 6 4 2 1 1 2 4 4 7 9 9 11 14 19 20 21 22 24 25 25 25 25 26 28 28 27 28 26 28 26 29 21 20 21 22 18
22 22 20 19 14 10 10 8 6 5 5 5 2 4 7 6 7 13 14 17 19 22 22 23 23 24 28 30 30 30 30 30 29 26 22 24 25 24 21 22 23 22 15
17 17 19 22 16 13 11 8 6 4 5 5 8 7 6 7 11 14 19 18 19 21 22 23 25 26 25 27 28 29 31 31 29 27 27 24 23 22 21 22 21 7 3
23 19 20 18 14 13 11 8 6 5 4 6 5 6 8 9 15 20 20 17 17 19 21 23 23 23 25 20 25 27 25 28 32 36 33 32 29 24 22 23 20 18 16
22 20 17 21 17 14 8 2 0 2 7 4 6 8 7 9 17 20 22 15 16 18 20 22 23 24 21 26 29 30 30 29 30 31 29 29 28 29 25 22 20 21 11
20 22 18 13 17 13 7 3 3 8 6 4 6 6 7 6 14 24 24 18 17 20 20 20 22 18 23 33 29 26 29 30 27 29 29 28 29 26 26 21 17 19 5
5 8 25 19 19 13 7 3 5 7 5 3 2 3 5 8 15 24 23 18 20 21 18 20 20 25 31 30 28 26 25 26 24 22 15 16 16 19 21 22 23 19 11
12 12 20 17 15 10 7 5 6 5 2 1 1 1 6 7 12 20 21 18 21 20 19 21 23 27 29 26 24 23 25 28 29 21 17 16 13 10 11 15 22 20 16
14 14 17 14 11 10 8 6 5 4 3 3 3 4 5 9 14 19 20 20 19 20 19 21 22 26 27 24 25 26 22 15 15 15 13 11 9 13 9 11 13 14 16
15 16 15 13 11 9 7 6 7 4 2 5 5 6 8 10 14 19 19 20 20 18 19 21 23 23 27 26 25 28 30 26 23 22 19 16 11 11 11 9 7 10 13
16 15 14 12 10 8 7 5 4 5 5 5 6 7 8 11 15 17 17 19 18 18 16 24 22 22 22 23 27 28 30 27 25 22 22 24 21 20 18 14 10 10 17
16 14 13 12 9 8 6 7 7 5 6 6 5 7 7 10 12 15 15 14 16 14 13 19 23 23 23 23 21 26 28 26 27 26 28 27 26 24 25 18 17 11 5
15 14 13 11 11 10 9 8 7 5 4 3 3 4 5 8 12 13 13 13 14 12 11 14 17 18 20 19 19 19 22 23 22 21 24 23 25 29 22 29 31 23 22
13 12 11 9 8 7 8 12 13 8 5 2 1 4 6 9 10 11 11 11 9 12 11 8 13 12 14 18 19 18 18 16 17 22 22 23 23 24 22 30 32 28 25
11 11 11 9 9 8 6 5 5 4 8 12 7 4 6 7 9 10 11 14 4 6 9 10 13 12 8 8 13 12 12 14 17 15 13 16 17 20 18 19 24 21 17
14 14 11 10 8 6 5 5 6 4 5 5 6 10 8 6 10 12 14 15 13 6 8 7 8 10 11 7 6 5 7 12 10 12 13 9 7 9 12 13 15 16 14
14 12 11 11 10 9 10 9 7 6 7 8 6 5 3 7 5 7 2 10 3 6 7 3 8 9 12 11 5 5 9 8 8 7 8 6 3 4 8 8 10 10 7
14 14 15 11 13 13 10 8 6 5 7 4 6 4 4 8 8 11 7 2 9 8 8 10 11 8 3 8 10 11 11 10 7 5 4 3 7 4 6 6 8 9 13
15 16 16 16 14 9 9 7 8 10 9 8 3 4 6 7 11 15 11 5 5 6 6 6 9 8 6 8 4 8 6 9 7 2 2 2 3 2 7 3 4 5 3
15 14 17 19 17 11 12 14 14 8 15 12 8 6 7 11 13 11 7 4 8 6 6 4 2 4 6 6 3 4 5 6 6 6 2 2 2 5 13 4 1 4 4
17 15 15 15 17 16 17 13 10 10 12 13 13 10 13 6 12 8 8 6 6 6 6 6 3 4 5 3 2 3 2 4 5 3 4 8 6 5 5 6 4 3 2
18 15 15 20 19 17 14 19 12 17 18 19 12 14 7 2 16 6 4 7 6 6 6 4 5 4 4 2 4 3 4 4 4 4 6 6 5 7 7 6 3 7 8
17 18 19 11 9 14 17 18 16 15 16 19 12 9 8 10 19 6 7 8 11 8 6 5 6 4 6 8 3 3 7 7 6 6 7 7 5 5 4 6 5 7 10
Wind_Direction
204 202 202 203 208 209 212 215 229 243 255 260 264 268 272 284 288 300 295 292 288 289 291 292 287 285 282 278 273 265 268 262 242 264 271 273 285 251 226 217 222 238 245
195 195 194 199 197 195 204 200 203 224 228 252 279 287 282 289 295 295 294 297 297 295 295 297 293 291 289 284 280 277 277 279 273 256 264 274 273 272 248 243 240 241 238
137 193 135 163 197 142 119 85 103 122 162 197 284 291 309 306 311 304 301 306 303 299 299 297 294 292 286 284 282 282 281 283 283 257 259 260 262 263 246 240 242 237 239
139 167 122 106 101 93 94 88 56 35 80 13 345 320 314 328 322 318 326 322 307 302 301 298 295 291 288 289 288 286 285 284 277 273 270 265 263 264 262 246 241 235 233
114 128 127 111 102 97 94 76 45 23 18 13 333 351 353 2 23 335 333 318 308 306 305 301 297 293 291 290 287 283 282 283 282 282 274 267 264 257 247 248 239 231 207
121 118 114 100 111 114 86 69 72 67 24 359 15 10 5 27 345 327 322 313 306 305 302 300 296 295 292 292 290 289 283 273 272 274 278 274 269 267 255 246 237 195 211
133 116 101 99 103 82 73 47 28 46 40 27 4 8 16 17 343 336 335 316 309 311 311 309 309 301 302 310 311 303 298 292 278 266 265 262 267 265 259 250 237 205 227
118 114 124 128 115 90 58 77 195 79 60 30 19 24 21 9 358 353 350 336 328 326 318 314 314 317 326 330 327 311 300 286 280 273 265 265 265 261 252 246 247 214 180
128 131 121 133 99 106 119 135 176 69 55 43 37 26 11 16 360 6 360 348 337 328 325 323 324 329 328 328 324 308 298 286 281 281 273 268 266 267 248 239 215 167 149
129 145 121 115 121 120 131 118 84 83 62 44 47 37 16 12 356 9 8 352 345 336 338 336 337 331 330 329 327 309 290 286 290 291 269 279 273 253 237 224 190 171 150
147 138 107 103 105 119 137 128 103 92 108 62 4 124 19 7 8 4 7 359 356 347 350 350 340 340 341 337 334 327 308 289 285 286 269 269 250 224 217 203 187 180 171
136 116 106 115 125 136 134 120 134 154 147 120 49 28 49 29 12 3 5 6 0 359 358 350 348 355 358 358 357 349 347 337 286 253 247 253 216 153 155 180 177 176 186
129 123 127 131 135 140 138 145 152 132 113 71 50 37 34 24 11 7 7 5 2 5 3 357 4 10 19 19 15 20 25 28 36 43 31 35 78 105 124 122 136 146 132
134 134 136 137 138 151 150 143 120 117 95 72 50 38 42 31 17 8 5 3 358 3 6 16 15 19 23 25 29 34 35 35 42 43 42 46 66 82 84 92 95 124 131
143 144 145 146 147 144 106 103 109 87 71 55 40 39 25 28 7 1 358 354 354 347 355 25 25 23 24 25 27 33 37 42 42 47 47 54 51 46 63 71 52 21 85
154 163 168 152 168 143 132 130 122 123 96 85 56 43 353 330 336 343 348 348 359 360 24 32 35 25 23 19 31 36 43 47 47 48 57 55 53 57 36 60 57 37 35
172 162 164 171 164 167 181 178 178 195 194 171 5 328 329 327 335 341 343 331 348 9 35 32 27 22 36 37 42 53 57 64 62 67 70 66 62 61 58 57 61 45 16
173 168 175 174 176 178 185 191 233 221 211 204 201 264 284 321 319 316 333 335 42 14 24 15 15 13 15 47 60 63 51 68 72 73 72 82 87 88 68 61 70 59 29
178 181 197 179 183 184 179 208 235 213 253 264 271 214 230 288 303 293 288 284 311 49 4 4 9 1 20 70 88 115 73 74 88 100 89 113 110 111 100 87 87 85 82
189 197 202 188 173 208 211 227 222 210 233 246 266 298 197 307 318 286 279 331 283 351 14 336 346 359 5 359 132 144 159 139 113 113 116 143 143 135 110 139 159 141 144
195 190 207 216 216 207 220 226 242 261 259 286 268 200 286 295 311 311 299 352 333 27 6 20 6 13 13 19 9 14 189 175 163 161 169 167 175 196 201 203 202 181 182
204 201 197 221 232 225 229 235 250 257 259 268 323 227 237 269 271 282 309 329 332 347 335 339 334 7 2 15 14 19 25 25 29 98 354 133 150 252 88 52 84 130 122
218 217 196 200 225 218 220 233 231 263 293 272 245 228 243 265 296 257 278 343 295 317 329 328 309 341 350 5 155 19 3 48 37 31 343 329 98 29 12 181 354 48 100
223 225 218 218 219 222 249 219 234 254 279 262 265 233 257 228 252 284 292 286 285 291 299 299 328 349 345 335 340 347 343 15 5 347 344 345 344 343 15 29 42 305 275
241 242 225 215 208 236 229 242 213 244 253 264 255 266 230 205 266 329 320 256 294 291 276 306 301 301 277 324 305 325 331 323 304 292 309 332 338 347 340 320 305 327 347
226 237 249 243 221 227 233 237 226 228 242 272 229 261 273 250 265 241 269 276 251 259 242 268 258 263 284 279 206 273 286 281 264 259 278 301 284 292 274 290 328 304 311